Regional Weather Roundup
Issued by NWS Wakefield, VA

Home | Current Version | Previous Version | Graphics & Text | Print | Product List | Glossary On
Versions: 1 2 3 4 5 6 7 8 9 10 11 12 13 14 15 16 17 18 19 20 21 22 23 24 25 26 27 28 29 30 31 32 33 34 35 36 37 38 39 40 41 42 43 44 45 46 47 48 49 50
000
ASUS41 KAKQ 241010
RWRAKQ

REGIONAL WEATHER ROUNDUP
NATIONAL WEATHER SERVICE WAKEFIELD VA
600 AM EDT THU JUL 24 2014

Note: "fair" indicates few or no clouds below 12,000 feet with no
significant weather and/or obstructions to visibility. * = Denotes
station may not report precipitation (e.g., rain,snow,etc.),
thunder or fog.

VAZ042-051-052>054-056-241100-
NORTHERN VIRGINIA

CITY           SKY/WX    TMP DP  RH WIND       PRES   REMARKS
WASH NATIONAL  CLOUDY    76  70  82 N6        29.88S
DULLES         CLOUDY    71  68  90 N7        29.89S
FORT BELVOIR   CLOUDY    72  70  94 N2        29.88S
QUANTICO       LGT RAIN  74  69  85 N7        29.88R
FREDERICKSBRG* CLOUDY    74  73  97 NW3       29.87R
STAFFORD*      DRIZZLE   72  72 100 N7        29.92S
WARRENTON      DRIZZLE   73  73 100 CALM      29.88S
CULPEPER*      LGT RAIN N/A N/A N/A CALM      29.89S
MANASSAS*      CLOUDY    72  70  94 N5        29.88S
LEESBURG*      CLOUDY    72  72 100 NE5       29.90S
WINCHESTER     CLOUDY    70  64  83 NW6       29.92R
$$

VAZ048-049-060>072-079>083-241100-
CENTRAL AND SOUTH CENTRAL VIRGINIA...AND NORTH CENTRAL NORTH CAROLINA

CITY           SKY/WX    TMP DP  RH WIND       PRES   REMARKS
RICHMOND       LGT RAIN  76  70  82 NW10      29.87R
CHESTERFIELD*  PTSUNNY   73  63  68 N6        29.89R
HANOVER        LGT RAIN  73  70  90 VRB5      29.89R FOG
TAPPAHANNOCK*  LGT RAIN  75  69  83 NW3       29.87R
CHARLOTTSVILLE CLOUDY    71  69  93 CALM      29.89R FOG
ORANGE*        CLOUDY    72  68  88 N3        29.90R
LOUISA*        CLOUDY    72  70  94 CALM      29.88R
FARMVILLE*     HVY RAIN  72  72 100 NW3       29.89R
SOUTH HILL*    MOCLDY    79  75  89 CALM      29.92R
ROANOKE RAPIDS PTSUNNY   72  70  94 SW6       29.87R
RALEIGH        PTCLDY    75  71  87 SW8       29.89S
$$

VAZ088>098-241100-
SOUTHEAST VIRGINIA

CITY           SKY/WX    TMP DP  RH WIND       PRES   REMARKS
NORFOLK        PTCLDY    78  73  84 SW7       29.84R
VIRGINIA BEACH MOCLDY    77  74  90 SW8       29.83S
NORFOLK NAVAL  MOCLDY    79  74  84 SW6       29.85S
WEST POINT*    CLOUDY    78  71  80 CALM      29.86S
NEWPORT NEWS   CLOUDY    80  74  81 W5        29.84S
LANGLEY AFB    MOCLDY    78  76  94 W8        29.83S
FORT EUSTIS    CLOUDY    77  77 100 W3        29.83R
WILLIAMSBURG*  MOCLDY    79  75  89 NW6       29.85S
FRANKLIN*      MOCLDY    75  73  94 CALM      29.86R
WAKEFIELD      MOCLDY    76  72  87 CALM      29.86R
$$

VAZ020-022-025-037-045-241100-
WESTERN AND SOUTHWEST VIRGINIA

CITY           SKY/WX    TMP DP  RH WIND       PRES   REMARKS
STAUNTON*      RAIN      70  68  94 W3        29.94S
HOT SPRINGS VA LGT RAIN  61  59  94 NW8       30.07R
LYNCHBURG      LGT RAIN  69  68  96 SE3       29.94R
DANVILLE       LGT RAIN  74  71  91 NW3       29.92R
MARTINSVILLE   LGT RAIN  71  70  97 CALM      29.95R
ROANOKE        CLOUDY    72  66  83 CALM      29.95R
BLACKSBURG     CLOUDY    70  68  94 NW3       30.01R
DUBLIN*        CLOUDY    69  67  94 CALM      30.00S
MARION*        LGT RAIN  68  68 100 W6        30.04S
HILLSVILLE*    CLOUDY    67  65  93 W5        30.02R
RICHLANDS*     FOG       69  67  94 CALM      30.03R VSB 1/4
WISE*          MOCLDY    64  64 100 SW5       30.04R FOG
ABINGDON*      LGT RAIN  70  70 100 CALM      30.00S
$$

MDZ021>025-VAZ099-100-241100-
SOUTHERN MARYLAND AND THE DELMARVA PENINSULA

CITY           SKY/WX    TMP DP  RH WIND       PRES   REMARKS
PATUXENT RIVER LGT RAIN  76  71  85 N12       29.85R FOG
BAY BRIDGE APT RAIN      73  70  88 NE5       29.87S
LEONARDTOWN    CLOUDY    73  70  88 NW5       29.88R
DOVER          CLOUDY    71  71 100 NW8       29.84R
GEORGETOWN     MOCLDY    72  70  93 VRB6      29.85S
EASTON         RAIN      74  74 100 N3        29.90R
CAMBRIDGE      CLOUDY    77  72  83 N8        29.85R
SALISBURY      NOT AVBL
OCEAN CITY     CLOUDY    72  70  93 CALM      29.83R
WALLOPS ISLAND CLOUDY    76  72  87 NW3       29.84R
ACCOMACK*        N/A     73  72  94 W3        29.83S FOG
$$

NCZ012>017-030>032-241100-
EASTERN NORTH CAROLINA

CITY           SKY/WX    TMP DP  RH WIND       PRES   REMARKS
ELIZABETH CITY PTCLDY    76  74  93 SW9       29.86S
AHOSKIE*       PTCLDY    74  73  94 CALM      29.87R
EDENTON*       MOCLDY    78  75  90 SW9       29.87S
CURRITUCK*     PTCLDY    77  73  87 SW7       29.86S
KILL DEVIL HLS CLOUDY    78  74  89 SW8G16    29.86S
MANTEO         NOT AVBL
CAPE HATTERAS  MOCLDY    79  77  94 W8        29.90S
GOLDSBORO      PTCLDY    76  76  99 SW8       29.88S
WASHINGTON     CLEAR     75  73  93 SW5       29.89S
GREENVILLE     PTCLDY    77  73  88 SW6       29.91R FOG
NEW BERN       PTCLDY    77  73  87 SW5       29.92R
WILMINGTON     MOCLDY    78  76  93 SW8       29.93S
$$

VAZ048-241100-
ELSEWHERE

CITY           SKY/WX    TMP DP  RH WIND       PRES   REMARKS
HARRISBURG PA  CLOUDY    71  59  65 N7        29.90R
BALTIMORE      LGT RAIN  72  68  87 CALM      29.87R
ANNAPOLIS      LGT RAIN  74  70  87 N6        29.87S
ANDREWS AFB    DRIZZLE   73  70  92 N6        29.88R
WILMINGTON DE  CLOUDY    71  67  87 N9        29.87R
PHILADELPHIA   LGT RAIN  72  62  71 N13       29.86R
WILDWOOD NJ*   MOCLDY    72  68  88 N7        29.85S
ATLANTIC CITY  CLOUDY    71  68  90 NW6       29.84R
HENDERSON NC   PTCLDY    74  71  90 SW7       29.89R
GREENSBORO     MOCLDY    72  70  93 S5        29.91S
ROCKY MOUNT    PTCLDY    76  74  93 SW7       29.88S
FAYETTEVILLE   PTCLDY    76  74  93 SW7       29.90S
CHARLOTTE      MOCLDY    72  69  90 CALM      29.92S
$$

VAZ100-241100-
MARINE

STATION/POSITION TIME  TEMP    WIND        PRES    WAVE   SWELL
                       AIR SEA DIR/SP/G            HT/PER HT/PER
                 (UTC) (F)     (DEG/KT/KT) (MB)    (FT/S) (FT/S)
44066 TX TWR #4  1000   74 74  300/ 10/ 12 1008.3R   3/ 4   2/10
CAPE MAY NJ      0900   74 77  330/  3/  6 1010.1R
LEWES DE         0900   73 71  300/  6/  7 1010.1R
15NM E FENWICK I 1000   73 76              1010.0R   3/ 5
OCEAN-CITY-INLET 0900   73 73   10/  3/  4 1009.5S
WACHAPREAGUE VA  0900   75 83   CALM  /  2 1009.7F
THOMAS POINT MD  0900   76 80  360/ 12/ 13 1011.5R
GOOSES REEF MD   1000   77      10/ 14/ 17 1011.4R
COVE POINT MD    0900   78     360/ 15/ 19 1010.5R
SOLOMONS ISLAND  0900      82                N/A
BISHOPS HEAD MD  0900   77 81  330/  6/  8 1010.0R
PINEY POINT MD   0900           10/ 10/ 12   N/A
POTOMAC MD       1000   78     350/ 12/ 14 1010.0R
CAMBRIDGE MD     0900   76 80  360/ 10/ 12 1010.4R
LEWISETTA VA     0900   77 82  350/  7/ 11 1010.4R
RAPPAHANNOCK LGT 0900          330/  8/  8 1010.6S
STINGRAY PT      1000   80     330/ 10/ 12 1011.0S
YORK RVR RNG VA  0900   79     280/ 12/ 13 1009.6S
YORKTOWN VA      0900   78 81  240/  8/ 10 1009.9R
JAMESTOWN VA     1000   76     280/  4/  6   N/A
DOMINION TERM VA 0900   79     250/ 13/ 15 1010.3F
KIPTOPEKE VA     0900      82  260/ 11/ 14   N/A
CHES BAY BRIDGE  0900   78 79  220/ 11/ 13 1009.6S
CAPE HENRY VA    0900   78     240/  6/ 12 1009.1S
WILLOUBY STN VA  0900          280/  9/ 11 1009.4R
S CRANEY ISL VA  0900          220/  6/  8 1010.4S
CAPE HENRY BUOY  0900      77                N/A     3/ 6
1ST LANDING BUOY 1000   79     250/ 12/ 14 1010.0S
CAPE CHARLES BUO 1000      74                N/A     2/ 4
OFFSHORE WE BUOY 0900      78                N/A     3/ 7
64NM E OF VA BCH 1000   78 78  230/ 16/ 17 1010.0F   4/ 6   2/10
DUCK PIER NC     0900   79 72  230/ 14/ 17 1010.4F
44056 DUCK FRF   0900                        N/A     2/ 9
OREGON INLET NC  0900   79 83  230/ 15/ 17 1011.5F
HATTERAS NC      0900   79 82  230/  8/ 11 1012.8F
DIAMOND SHLS NC  1000          VRB 17/ 21  1012.2S   5/ 5   2/11
CAPE LOOKOUT NC  0900   80     240/ 12/ 14 1013.0R
$$



USA.gov is the U.S. government's official web portal to all federal, state and local government web resources and services.